EW7099 Weather Reports


time (UTC)temp
C
wind
direction
speed
KPH
gust
KPH
rain 1hr
cm
rain 24hr
cm
rain mn
cm
humidity
%
barometer
mb
20260901060024 27 275 0.0 0.0 0.00 0.00 0.00 86 1011.7
20260901054522 27 273 0.0 0.0 0.00 0.00 0.00 85 1011.7
20260901053021 27 273 0.0 0.0 0.00 0.00 0.00 85 1011.6
20260901051519 27 275 0.0 0.0 0.00 0.00 0.00 85 1011.6
20260901050018 27 275 0.0 0.0 0.00 0.00 0.00 85 1011.6
20260901044516 27 275 0.0 0.0 0.00 0.00 0.00 85 1011.6
20260901043020 27 274 0.0 0.0 0.00 0.00 0.00 85 1011.5
20260901041510 27 294 0.0 0.0 0.00 0.00 0.00 85 1011.3
20260901040009 28 310 0.0 0.0 0.00 0.00 0.00 84 1011.1
20260901034507 28 300 0.0 0.0 0.00 0.00 0.00 84 1010.9
20260901033003 28 315 0.0 8.0 0.00 0.00 0.00 84 1010.9
20260901031502 28 296 0.0 0.0 0.00 0.00 0.00 84 1010.9
20260901030100 28 243 0.0 0.0 0.00 0.00 0.00 84 1010.9
20260901024603 28 237 0.0 0.0 0.00 0.00 0.00 84 1010.6
20260901023053 28 258 0.0 0.0 0.00 0.00 0.00 83 1010.5
20260901021609 28 242 0.0 3.2 0.00 0.00 0.00 83 1010.3
20260901020106 28 208 0.0 0.0 0.00 0.00 0.00 84 1010.2
20260901014549 28 208 0.0 1.6 0.00 0.00 0.00 83 1010.2
20260901013044 28 360 3.2 9.7 0.00 0.00 0.00 83 1010.2
20260901011540 29 209 0.0 8.0 0.00 0.00 0.00 83 1010.0
20260901010034 29 212 0.0 8.0 0.00 0.00 0.00 81 1009.9
20260901004536 30 154 0.0 6.4 0.00 0.00 0.00 80 1009.7
20260901003033 30 192 1.6 12.9 0.00 0.00 0.00 79 1009.4
20260901001528 30 162 8.0 14.5 0.00 0.00 0.00 77 1009.1
20260901000027 31 175 0.0 9.7 0.00 0.00 0.00 75 1008.8
20260831234525 31 221 8.0 11.3 0.00 0.00 0.00 72 1008.5
20260831233035 31 142 6.4 11.3 0.00 0.00 0.00 71 1008.4
20260831231521 31 140 6.4 12.9 0.00 0.00 0.00 72 1008.4
20260831230020 32 203 12.9 17.7 0.00 0.00 0.00 71 1008.5
20260831224519 32 164 3.2 12.9 0.00 0.00 0.00 68 1008.5
20260831223018 32 153 8.0 16.1 0.00 0.00 0.00 68 1008.6
20260831221515 33 119 12.9 19.3 0.00 0.00 0.00 67 1008.6
20260831220017 33 91 11.3 24.1 0.00 0.00 0.00 66 1008.7
20260831214613 33 155 12.9 24.1 0.00 0.00 0.00 64 1008.4
20260831213017 36 151 11.3 24.1 0.00 0.00 0.00 49 1008.1
20260831211507 36 119 8.0 12.9 0.00 0.00 0.00 48 1008.1
20260831210004 36 197 1.6 16.1 0.00 0.00 0.00 50 1008.4
20260831204600 35 208 8.0 17.7 0.00 0.00 0.00 51 1008.7
20260831203057 35 198 16.1 24.1 0.00 0.00 0.00 56 1008.9
20260831201537 35 165 9.7 19.3 0.00 0.00 0.00 60 1009.1
20260831200027 34 360 12.9 25.7 0.00 0.00 0.00 60 1009.4
20260831194627 35 177 4.8 17.7 0.00 0.00 0.00 57 1009.6
20260831193048 33 256 8.0 14.5 0.00 0.00 0.00 58 1009.7
20260831191515 33 219 4.8 14.5 0.00 0.00 0.00 59 1010.1
20260831190014 33 314 14.5 20.9 0.00 0.00 0.00 57 1010.3
20260831184606 33 308 8.0 16.1 0.00 0.00 0.00 60 1010.7
20260831183041 33 257 4.8 14.5 0.00 0.00 0.00 62 1011.1
20260831181512 32 328 8.0 16.1 0.00 0.00 0.00 64 1011.4
20260831180001 31 322 3.2 22.5 0.00 0.00 0.00 68 1011.8
20260831174606 31 289 1.6 22.5 0.00 0.00 0.00 69 1012.0
20260831173102 31 297 8.0 19.3 0.00 0.00 0.00 72 1012.2
20260831171551 30 294 3.2 11.3 0.00 0.00 0.00 72 1012.4
20260831170055 30 182 0.0 9.7 0.00 0.00 0.00 74 1012.7
20260831164548 30 213 9.7 19.3 0.00 0.00 0.00 75 1013.0
20260831163050 30 155 14.5 25.7 0.00 0.00 0.00 74 1013.1
20260831161540 30 159 9.7 16.1 0.00 0.00 0.00 68 1013.2
20260831160035 30 165 0.0 12.9 0.00 0.00 0.00 71 1013.1
20260831154502 30 202 0.0 9.7 0.00 0.00 0.00 71 1013.4
20260831153101 30 171 0.0 0.0 0.00 0.00 0.00 72 1013.3
20260831151603 30 146 4.8 11.3 0.00 0.00 0.00 71 1013.3
20260831150051 30 191 3.2 14.5 0.00 0.00 0.00 72 1013.2
20260831144555 30 132 6.4 14.5 0.00 0.00 0.00 70 1012.9
20260831143046 29 154 4.8 11.3 0.00 0.00 0.00 70 1012.4
20260831141534 -17 0.0 0.0 0.00 0.00 0.00 1012.2
20260831140030 -17 0.0 0.0 0.00 0.00 0.00 1012.0
20260831134526 -17 0.0 0.0 0.00 0.00 0.00 1011.8
20260831133021 -17 0.0 0.0 0.00 0.00 0.00 1011.6
20260831131618 -17 0.0 0.0 0.00 0.00 0.00 1011.3
20260831130048 -17 0.0 0.0 0.00 0.00 0.00 1011.0
20260831124539 -17 0.0 0.0 0.00 0.00 0.00 1011.0
20260831123032 -17 0.0 0.0 0.00 0.00 0.00 1011.0
20260831121534 -17 0.0 0.0 0.00 0.00 0.00 1011.0
20260831120026 26 264 0.0 0.0 0.00 0.00 0.00 82 1010.9
20260831114530 26 263 0.0 0.0 0.00 0.00 0.00 81 1010.6
20260831113023 26 264 0.0 0.0 0.00 0.00 0.00 80 1010.1
20260831111521 26 262 0.0 0.0 0.00 0.00 0.00 80 1010.1
20260831110023 26 291 0.0 0.0 0.00 0.00 0.00 80 1009.9
20260831104523 26 291 0.0 0.0 0.00 0.00 0.00 81 1009.9
20260831103019 26 291 0.0 0.0 0.00 0.00 0.00 81 1009.9
20260831101518 26 291 0.0 0.0 0.00 0.00 0.00 80 1009.9
20260831100016 26 291 0.0 0.0 0.00 0.00 0.00 81 1009.9
20260831094522 26 291 0.0 0.0 0.00 0.00 0.00 81 1009.9
20260831093013 26 290 0.0 0.0 0.00 0.00 0.00 81 1009.9
20260831091513 26 290 0.0 0.0 0.00 0.00 0.00 81 1009.9
20260831090015 26 275 0.0 0.0 0.00 0.00 0.00 81 1010.0
20260831084520 26 297 0.0 0.0 0.00 0.00 0.00 80 1010.3
20260831083047 26 329 0.0 9.7 0.00 0.00 0.00 80 1010.4
20260831081555 26 313 1.6 9.7 0.00 0.00 0.00 80 1010.5
20260831080008 26 319 0.0 0.0 0.00 0.00 0.00 79 1010.5
20260831074529 27 334 0.0 0.0 0.00 0.00 0.00 79 1010.7
20260831073102 27 334 0.0 0.0 0.00 0.00 0.00 79 1011.0
20260831071537 27 331 0.0 0.0 0.00 0.00 0.00 79 1011.1
20260831070007 26 331 0.0 0.0 0.00 0.00 0.00 80 1011.0
20260831064518 26 327 0.0 8.0 0.00 0.00 0.00 80 1010.8
20260831063036 26 300 0.0 0.0 0.00 0.00 0.00 80 1010.9
20260831061538 26 316 0.0 9.7 0.00 0.00 0.00 80 1011.2